TimeEDT,TemperatureF,Dew PointF,Humidity,Sea Level PressureIn,VisibilityMPH,Wind Direction,Wind SpeedMPH,Gust SpeedMPH,PrecipitationIn,Events,Conditions,WindDirDegrees,DateUTC
12:51 AM,55.9,53.1,90,29.95,10.0,Calm,Calm,-,N/A,,Overcast,0,2013-05-09 04:51:00
1:51 AM,55.0,53.1,93,29.93,10.0,Calm,Calm,-,N/A,,Overcast,0,2013-05-09 05:51:00
2:51 AM,54.0,53.1,97,29.93,10.0,Calm,Calm,-,N/A,,Overcast,0,2013-05-09 06:51:00
3:51 AM,55.0,52.0,89,29.92,10.0,WNW,3.5,-,N/A,,Overcast,300,2013-05-09 07:51:00
4:51 AM,55.0,53.1,93,29.92,10.0,NW,3.5,-,N/A,,Overcast,310,2013-05-09 08:51:00
5:51 AM,54.0,52.0,93,29.93,10.0,West,4.6,-,N/A,,Mostly Cloudy,270,2013-05-09 09:51:00
6:51 AM,55.0,53.1,93,29.95,9.0,WNW,3.5,-,N/A,,Mostly Cloudy,290,2013-05-09 10:51:00
7:29 AM,55.4,53.6,94,29.97,10.0,West,4.6,-,N/A,,Mostly Cloudy,260,2013-05-09 11:29:00
7:51 AM,57.0,54.0,89,29.98,10.0,West,4.6,-,N/A,,Mostly Cloudy,270,2013-05-09 11:51:00
8:51 AM,59.0,54.0,83,29.99,10.0,West,3.5,-,N/A,,Overcast,280,2013-05-09 12:51:00
9:51 AM,59.0,55.0,87,29.99,10.0,Calm,Calm,-,N/A,,Overcast,0,2013-05-09 13:51:00
10:51 AM,64.0,55.0,73,29.99,10.0,Variable,3.5,-,N/A,,Mostly Cloudy,0,2013-05-09 14:51:00
11:51 AM,68.0,52.0,56,29.99,10.0,NW,4.6,-,N/A,,Scattered Clouds,310,2013-05-09 15:51:00
12:51 PM,71.1,53.1,53,29.99,10.0,NW,8.1,-,N/A,,Scattered Clouds,320,2013-05-09 16:51:00
1:51 PM,75.0,52.0,44,29.98,10.0,North,9.2,-,N/A,,Mostly Cloudy,360,2013-05-09 17:51:00
2:51 PM,73.9,51.1,45,29.97,10.0,West,8.1,-,N/A,,Mostly Cloudy,280,2013-05-09 18:51:00
3:51 PM,77.0,50.0,39,29.95,10.0,NNW,8.1,-,N/A,,Mostly Cloudy,340,2013-05-09 19:51:00
4:51 PM,75.9,46.9,36,29.95,10.0,WNW,9.2,-,N/A,,Mostly Cloudy,300,2013-05-09 20:51:00
5:51 PM,75.9,42.1,30,29.95,10.0,NNW,10.4,20.7,N/A,,Mostly Cloudy,330,2013-05-09 21:51:00
6:51 PM,72.0,42.1,34,29.95,10.0,NNW,8.1,-,N/A,,Mostly Cloudy,330,2013-05-09 22:51:00
7:51 PM,69.1,42.1,38,29.97,10.0,North,3.5,-,N/A,,Mostly Cloudy,360,2013-05-09 23:51:00
8:51 PM,57.9,46.9,67,29.99,10.0,ENE,4.6,-,N/A,,Mostly Cloudy,70,2013-05-10 00:51:00
9:51 PM,59.0,46.4,63,29.99,10.0,Variable,4.6,-,N/A,,Overcast,0,2013-05-10 01:51:00
10:51 PM,55.9,46.0,69,29.98,10.0,ESE,5.8,-,N/A,,Mostly Cloudy,120,2013-05-10 02:51:00
11:51 PM,59.0,44.1,58,29.97,10.0,SE,4.6,-,N/A,,Overcast,140,2013-05-10 03:51:00